Regional Weather Roundup
Issued by NWS

Home | Current Version | Previous Version | Graphics & Text | Print | Product List | Glossary On
Versions: 1 2 3 4 5 6 7 8 9 10 11 12 13 14 15 16 17 18 19 20 21 22 23 24 25 26 27 28 29 30 31 32 33 34 35 36 37 38 39 40 41 42 43 44 45 46 47 48 49 50
000
ASUS43 KOAX 220502
RWRNE

WEATHER ROUNDUP FOR NEBRASKA
NATIONAL WEATHER SERVICE OMAHA NE
1100 PM CST SAT JAN 21 2017

NOTES: SATELLITE DATA IS BEING USED TO AUGMENT CLOUD COVER ABOVE
       12000 FEET.
       "FAIR" INDICATES FEW OR NO CLOUDS BELOW 12,000 FEET WITH NO
       SIGNIFICANT WEATHER AND/OR OBSTRUCTIONS TO VISIBILITY.

  * THESE STATIONS DO NOT REPORT WEATHER SUCH AS RAIN...SNOW OR FOG.

NEZ001>004-019>022-054>056-220600-
NEBRASKA PANHANDLE

CITY           SKY/WX    TMP DP  RH WIND       PRES   REMARKS
SCOTTSBLUFF    MOCLDY    27  24  89 NW5       29.64R WCI  22
ALLIANCE       CLEAR     25  21  85 N5        29.63R WCI  19
CHADRON        CLOUDY    23  21  92 W5        29.66R WCI  17
KIMBALL        CLOUDY    34  29  82 W8        29.64R WCI  28
SIDNEY         CLOUDY    30  26  85 W9        29.63R WCI  22
$$

NEZ057>060-069>072-079>082-220600-
SOUTHWEST NEBRASKA

CITY           SKY/WX    TMP DP  RH WIND       PRES   REMARKS
NORTH PLATTE   CLOUDY    31  26  82 W5        29.62R WCI  26
IMPERIAL       CLOUDY    33  26  75 NW6       29.62R WCI  28
LEXINGTON      CLEAR     30  28  92 NW7       29.60R WCI  23
MCCOOK         CLOUDY    34  28  79 N13       29.59R WCI  25
OGALLALA       CLOUDY    30  28  89 SW3       29.63R
$$

NEZ005>010-023>029-035>040-094-220600-
NORTH CENTRAL NEBRASKA

CITY           SKY/WX    TMP DP  RH WIND       PRES   REMARKS
VALENTINE      CLEAR     26  23  88 NW7       29.62R WCI  18
AINSWORTH      CLEAR     27  26  98 W5        29.62R WCI  21
BROKEN BOW     CLOUDY    33  30  88 N8        29.59R WCI  26
O`NEILL        CLEAR     32  29  88 NW7       29.59S WCI  26
ORD            CLEAR     29  25  85 N7        29.59R WCI  22
THEDFORD       CLEAR     28  27  95 CALM      29.63R
$$

NEZ041-046>049-061>064-073>077-083>087-220600-
SOUTH CENTRAL NEBRASKA

CITY           SKY/WX    TMP DP  RH WIND       PRES   REMARKS
GRAND ISLAND   FOG       30  30 100 NW6       29.58R VSB 1/2 WCI  24
AURORA         CLOUDY    32  32 100 CALM      29.57R
HASTINGS       CLOUDY    35  32  88 CALM      29.58R FOG
HEBRON         CLOUDY    32  32 100 CALM      29.57R FOG
HOLDREGE       CLOUDY    33  32  93 NW6       29.58R WCI  28
KEARNEY *      CLOUDY   N/A N/A N/A MISG        N/A
YORK           CLEAR     32  32 100 CALM      29.57R FOG
$$

NEZ011>018-030>034-042>045-220600-
NORTHEAST NEBRASKA

CITY           SKY/WX    TMP DP  RH WIND       PRES   REMARKS
NORFOLK        CLEAR     26  23  88 N3        29.58R
ALBION         CLEAR     30  27  88 NW6       29.58S WCI  24
BLAIR          CLEAR     36  34  92 N8        29.56R WCI  29
FREMONT        CLEAR     30  30 100 N3        29.58R
TEKAMAH        CLEAR     32  30  92 N10       29.59R WCI  24
WAYNE          CLEAR     27  26  97 CALM      29.59R FOG
$$

NEZ050>053-065>068-078-088>093-220600-
SOUTHEAST NEBRASKA

CITY           SKY/WX    TMP DP  RH WIND       PRES   REMARKS
LINCOLN        CLEAR     28  26  92 CALM      29.58R
OMAHA EPPLEY   CLEAR     32  28  85 N3        29.56R FOG
BEATRICE       CLOUDY    33  33  99 NE5       29.56S WCI  29
FALLS CITY     CLOUDY    36  35  96 NW3       29.54S
NEBRASKA CITY  CLEAR     42  35  77 CALM      29.56S
PLATTSMOUTH    CLEAR     38  33  81 CALM      29.56S
$$

NEZ044-045-051>053-067-220600-
OMAHA AREA

CITY           SKY/WX    TMP DP  RH WIND       PRES   REMARKS
OMAHA EPPLEY   CLEAR     32  28  85 N3        29.56R FOG
BLAIR          CLEAR     36  34  92 N8        29.56R WCI  29
FREMONT        CLEAR     30  30 100 N3        29.58R
MILLARD        CLEAR     33  32  96 CALM      29.57R FOG
OFFUTT AFB     CLEAR     27  27 100 CALM      29.56R FOG
PLATTSMOUTH    CLEAR     38  33  81 CALM      29.56S
WAHOO          FAIR      33  32  98 N3        29.57R
$$




USA.gov is the U.S. government's official web portal to all federal, state and local government web resources and services.